This demonstration page uses our WeatherBlox Daily Observations layout. Learn more.

Left ArrowRight Arrow

39.92423, -83.80882

Hourly Observations for May 3, 2020

Temp ( °F °C ) Dew Point ( °F °C ) Humidity (%) Winds ( mph kmh ) Pressure ( in mb ) Visibility ( mi km ) Precip ( " mm )
12:56 am 00:56 Mostly Clear 68 20 60 15.6 76 76 SW 9 15 29.88 1012 10 16.0934 0 0
1:56 am 01:56 Clear 67 19.4 60 15.6 79 79 WSW 9 15 29.89 1012 10 16.0934 0 0
2:56 am 02:56 Cloudy 67 19.4 61 16.1 81 81 WNW 8 13 29.9 1012 10 16.0934 0 0
3:56 am 03:56 Cloudy with Rain 64 17.8 60 15.6 87 87 WNW 9 15 29.9 1012 10 16.0934 0.02 0.508
4:56 am 04:56 Cloudy with Rain 59 15 58 14.4 96 96 NW 7 11 29.93 1013 10 16.0934 0.02 0.508
5:20 am 05:20 Cloudy with Light Rain 59 15 57 14 94 94 WSW 5 7 29.93 1014 10 16.0934 0.01 0.254
5:56 am 05:56 Cloudy with Rain 58 14.4 57 13.9 97 97 NW 8 13 29.92 1013 10 16.0934 0.02 0.508
6:04 am 06:04 Cloudy with Rain 57 14 57 14 100 100 WNW 5 7 29.93 1013 10 16.0934 0.001 0.001
6:56 am 06:56 Cloudy with Light Rain 56 13.3 56 13.3 100 100 W 7 11 29.92 1013 5 8.0467 0 0
7:03 am 07:03 Cloudy with Light Rain 55 13 55 13 100 100 W 10 17 29.95 1014 9 14.48406 0.01 0.254
7:20 am 07:20 Cloudy with Light Rain 55 13 55 13 100 100 Calm 29.91 1013 8 12.87472 0.06 1.524
7:56 am 07:56 Cloudy 56 13.3 56 13.3 100 100 WSW 6 9 29.93 1014 10 16.0934 0.24 6.096
8:13 am 08:13 Cloudy 57 14 57 14 100 100 SW 6 9 29.94 1014 10 16.0934 0 0
8:30 am 08:30 Cloudy 57 14 57 14 100 100 SSW 7 11 29.94 1014 10 16.0934 0 0
8:39 am 08:39 Cloudy 57 14 57 14 100 100 SSW 6 9 29.94 1014 10 16.0934 0 0
8:51 am 08:51 Cloudy 57 14 57 14 100 100 S 5 7 29.94 1014 10 16.0934 0 0
8:56 am 08:56 Cloudy 58 14.4 58 14.4 100 100 SSW 7 11 29.93 1014 10 16.0934 0 0
9:16 am 09:16 Cloudy 59 15 59 15 100 100 SSW 7 11 29.93 1014 10 16.0934 0 0
9:56 am 09:56 Cloudy 60 15.6 60 15.6 100 100 WSW 5 7 29.92 1013 10 16.0934 0 0
10:13 am 10:13 Cloudy 61 16 61 16 100 100 SW 6 9 29.92 1013 10 16.0934 0.01 0.254
10:20 am 10:20 Cloudy 61 16 61 16 100 100 SSW 6 9 29.91 1013 10 16.0934 0.01 0.254
10:56 am 10:56 Cloudy 62 16.7 62 16.7 100 100 SW 8 13 29.91 1013 10 16.0934 0.16 4.064
11:45 am 11:45 Cloudy 64 18 64 18 100 100 WSW 9 15 29.9 1013 10 16.0934 0.01 0.254
11:52 am 11:52 Cloudy 64 18 64 18 100 100 SW 9 15 29.9 1013 10 16.0934 0.01 0.254
11:56 am 11:56 Cloudy 64 17.8 64 17.8 100 100 SW 7 11 29.9 1013 10 16.0934 0.01 0.254
12:03 pm 12:03 Cloudy 64 18 64 18 100 100 SW 8 13 29.89 1012 10 16.0934 0 0
12:30 pm 12:30 Cloudy 64 18 64 18 100 100 W 7 11 29.89 1012 10 16.0934 0 0
12:56 pm 12:56 Cloudy 65 18.3 64 17.8 97 97 SW 7 11 29.89 1012 10 16.0934 0.03 0.762
1:56 pm 13:56 Cloudy 66 18.9 65 18.3 96 96 SSW 5 7 29.87 1012 10 16.0934 0.01 0.254
2:08 pm 14:08 Cloudy 66 19 64 18 94 94 SW 5 7 29.86 1011 10 16.0934 0 0
2:56 pm 14:56 Cloudy 68 20 63 17.2 84 84 SW 7 11 29.86 1011 10 16.0934 0.4 10.16
3:56 pm 15:56 Mostly Cloudy 70 21.1 62 16.7 76 76 W 6 9 29.84 1011 10 16.0934 0.01 0.254
4:56 pm 16:56 Cloudy with Light Rain 69 20.6 62 16.7 78 78 WSW 8 13 29.84 1011 10 16.0934 2.43 61.722
5:56 pm 17:56 Cloudy 69 20.6 61 16.1 76 76 WNW 9 15 29.83 1010 10 16.0934 2.26 57.404
6:56 pm 18:56 Cloudy 68 20 50 10 53 53 NW 10 17 29.83 1010 10 16.0934 3.11 78.994
7:56 pm 19:56 Cloudy with Light Rain 63 17.2 46 7.8 54 54 NNW 22 35 29.83 1010 10 16.0934 4.38 111.252
8:56 pm 20:56 Mostly Cloudy 61 16.1 45 7.2 56 56 NNW 10 17 29.85 1011 10 16.0934 0.001 0.001
9:56 pm 21:56 Clear 56 13.3 46 7.8 70 70 WNW 5 7 29.88 1012 10 16.0934 0 0
10:56 pm 22:56 Clear 55 12.8 44 6.7 67 67 WNW 7 11 29.91 1013 10 16.0934 0.01 0.254
11:56 pm 23:56 Clear 51 10.6 45 7.2 80 80 WNW 5 7 29.92 1013 10 16.0934 0.04 1.016

Powered by AerisWeather